Location: Gälforsberget
(66.6500°N, 22.4167°E)
Time: 05:51:39
(UTC+00:00)

SL-16 R/B - Pass Details

Date: 11 April 2026
Orbit: 839 x 849 km, 71.0° (Epoch: 10 May)

Event Time Altitude Azimuth Distance (km) Brightness Sun altitude
Exits shadow 21:57:54 21° 186° (S) 1,825 3.3 -14.5°
Maximum altitude 22:01:24 46° 123° (ESE) 1,133 2.6 -14.6°
Drops below altitude 10° 22:06:48 10° 52° (NE) 2,482 5.1 -14.6°
Sets 22:09:20 0° 47° (NE) 3,422 5.9 -14.7°
